Theta_e
349 343 341 341 340 341 340 342 342 341 341 341 338 336 334 334 335 334 333 332 331 331 331 329 325 320 317 319 321 322 322 325 327 329 333 338 341 341 340 340 339 339 337 336 336 336 336 337 336 337 337 338 338 337 339 341 342 342 342 341 341 341 341 342 342 341 341 341 341 341 341 341 340 340 340 339 338 338 337 337 337 337 338 338 338
347 342 341 340 340 341 341 343 342 342 342 340 338 336 334 334 335 334 333 333 333 332 331 329 324 320 318 320 322 324 325 327 329 331 334 337 340 340 340 339 338 338 337 337 336 336 336 337 336 336 337 339 339 340 341 341 340 340 340 340 340 339 340 340 340 341 341 342 341 340 340 340 339 338 339 339 338 338 337 336 336 337 338 338 337
345 340 340 339 340 342 343 343 343 344 342 340 337 335 334 335 335 333 333 333 334 333 332 328 324 320 319 321 323 325 328 330 332 334 335 336 339 340 339 338 338 337 337 337 336 336 336 337 337 337 338 338 338 340 341 339 339 339 340 340 340 339 339 338 338 339 340 340 340 339 339 338 337 337 337 337 337 337 336 336 335 336 336 337 336
344 340 342 343 343 344 344 344 344 344 342 340 337 335 335 336 335 332 333 334 335 333 331 328 324 321 320 322 324 327 331 333 335 337 335 336 340 340 339 339 338 338 338 337 336 336 336 337 337 338 336 335 336 338 339 338 339 339 339 340 341 340 339 339 339 339 339 339 338 337 336 336 336 335 333 334 334 334 334 334 334 334 335 335 336
345 344 346 348 346 345 345 344 344 343 342 339 337 335 335 337 334 332 333 334 335 333 331 328 325 322 322 324 327 330 334 337 338 338 336 337 340 340 340 339 339 339 338 338 337 335 335 336 337 337 334 333 336 337 338 338 338 339 339 341 341 341 341 341 341 341 340 339 338 336 335 334 335 335 334 334 335 334 334 333 333 333 333 333 335
347 348 349 349 348 347 345 344 344 343 342 339 337 335 337 337 333 332 333 335 335 334 332 328 326 325 326 329 332 335 337 339 338 339 337 337 340 340 340 340 339 339 338 338 337 335 334 335 336 336 334 333 336 337 337 337 338 339 340 340 341 342 341 341 341 340 340 339 337 336 335 334 335 336 335 335 336 335 334 333 333 333 333 333 333
347 349 348 348 348 347 345 344 344 343 342 340 338 336 338 337 333 333 334 335 335 334 332 329 327 328 332 335 337 338 339 339 339 339 337 338 340 339 340 340 339 339 338 338 337 335 335 335 334 334 335 334 335 337 335 335 337 338 339 339 340 340 341 341 341 341 340 338 337 336 334 334 335 336 335 335 335 335 334 334 332 332 333 333 333
347 347 345 346 347 347 346 344 344 343 342 341 338 337 338 337 334 333 333 335 334 333 332 329 329 331 335 339 340 339 339 339 338 338 337 338 339 339 338 339 339 338 338 337 336 336 336 335 334 335 335 334 334 335 334 334 335 336 337 337 338 338 338 338 337 338 338 338 336 334 332 334 336 337 336 335 334 334 334 333 332 332 332 333 333
346 344 340 344 347 348 347 345 345 344 343 341 340 339 338 336 334 333 333 334 334 333 331 329 330 332 336 339 340 340 340 339 338 338 337 337 339 338 336 338 338 337 338 337 336 337 337 335 336 336 333 332 332 334 333 333 334 335 335 335 334 333 333 334 334 335 336 336 335 334 334 335 336 336 336 335 333 332 331 331 332 332 332 332 332
343 339 339 344 348 348 348 346 345 344 344 343 341 339 338 337 335 333 331 332 333 332 330 329 332 333 337 340 340 340 340 339 338 338 337 337 339 338 334 337 337 336 337 337 338 339 337 336 336 334 331 330 331 332 331 331 333 333 332 332 331 331 331 334 335 335 334 334 333 334 334 335 336 335 335 334 332 332 332 332 332 332 332 332 332
342 341 342 346 348 348 347 346 346 345 345 344 342 340 338 338 336 334 331 331 331 331 330 330 332 334 338 341 340 340 340 340 338 337 337 336 337 337 334 336 337 337 338 338 339 338 338 337 335 332 329 327 329 330 329 329 329 329 330 330 331 332 333 335 334 333 332 332 330 331 332 333 333 334 333 333 332 332 332 332 332 331 331 331 331
344 344 344 346 347 347 347 347 346 345 345 343 342 340 339 338 337 335 331 330 330 331 329 330 333 335 339 340 340 340 339 339 338 337 337 336 336 335 335 337 338 339 340 339 339 338 337 335 333 332 329 324 325 327 326 326 327 329 331 331 333 334 334 334 333 333 331 329 328 329 330 331 331 332 332 332 331 331 331 331 331 330 330 330 330
346 343 339 342 346 347 347 347 346 345 345 344 342 341 340 339 338 336 333 331 331 331 331 332 334 337 339 340 340 340 339 338 338 338 337 337 336 335 336 337 339 340 340 340 338 337 336 334 333 333 330 323 321 323 322 324 328 331 331 333 335 335 335 333 333 332 330 326 325 328 330 330 330 330 330 330 330 330 330 330 330 330 330 330 330
345 341 337 342 346 346 345 346 346 346 345 345 344 342 341 340 339 338 334 331 331 333 336 335 336 337 337 338 339 338 338 338 338 338 337 337 336 336 336 337 339 340 340 340 338 337 335 334 333 333 331 323 317 318 321 326 330 331 332 334 336 336 335 333 332 330 328 326 327 329 330 330 330 330 330 330 330 330 330 329 329 329 329 329 329
342 340 343 345 345 343 344 345 345 346 345 345 344 343 342 341 341 338 333 332 334 337 339 338 337 336 335 335 336 337 338 339 339 338 335 335 336 337 337 337 339 340 340 340 338 335 334 334 333 333 331 324 315 316 324 329 331 332 333 335 336 336 335 333 332 330 327 326 328 330 329 330 330 330 330 330 330 330 329 329 329 329 329 329 329
340 340 344 346 345 343 344 344 345 346 345 345 345 344 343 343 341 336 334 335 338 341 340 338 336 334 333 335 337 338 339 340 340 336 334 335 336 337 338 338 339 340 340 340 338 334 334 334 334 332 331 326 316 315 327 331 331 333 334 335 336 336 334 332 332 330 327 324 327 329 329 330 330 330 330 330 330 329 329 329 329 328 329 329 329
339 340 343 344 344 343 343 345 345 345 345 345 345 344 343 343 340 337 337 339 341 341 339 338 335 333 334 337 339 340 340 341 340 337 334 335 337 338 338 339 340 340 340 339 337 335 334 333 333 333 330 327 317 316 328 331 332 333 334 335 335 336 334 333 332 331 329 325 327 328 329 329 329 329 329 330 329 329 329 329 328 328 328 328 329
340 340 341 342 343 343 344 345 345 345 345 345 344 343 343 342 340 339 339 339 341 340 338 338 337 335 337 339 339 340 340 341 340 338 335 335 337 339 339 339 340 340 340 338 337 335 334 334 334 333 331 328 319 317 328 332 333 334 334 335 335 336 334 333 333 332 329 326 326 328 329 329 329 329 329 329 329 329 329 328 328 328 328 328 328
341 341 341 341 342 343 344 345 344 344 344 344 343 343 342 341 340 340 340 339 340 339 337 338 339 339 339 339 339 340 340 340 340 338 336 335 337 339 339 340 340 339 338 337 337 336 334 334 334 333 331 330 322 320 330 333 333 335 336 336 336 335 334 334 333 332 328 325 325 327 329 330 329 329 329 329 329 328 328 328 328 328 328 327 327
343 342 341 341 341 340 342 343 343 344 344 344 343 342 342 341 341 341 339 339 337 336 336 339 340 340 339 339 339 340 340 339 339 338 336 335 337 339 339 339 339 338 337 337 337 335 334 334 334 333 332 330 326 326 332 334 335 337 337 336 336 335 334 334 333 331 327 324 326 326 328 329 329 329 329 328 328 328 328 328 328 328 327 327 327
343 343 342 341 340 340 342 343 343 344 344 343 343 343 342 341 342 340 339 337 335 335 338 340 341 341 340 339 339 339 339 338 337 337 336 335 336 338 339 339 339 338 337 337 336 336 334 334 334 334 332 330 330 332 334 335 336 337 336 336 336 335 334 333 333 330 325 324 327 329 329 329 329 329 329 329 328 327 327 327 327 327 326 326 326
343 343 341 341 341 341 341 342 342 343 343 343 343 342 342 342 341 339 338 336 336 338 341 341 341 341 340 339 339 338 337 336 336 336 335 336 336 337 338 338 338 338 337 336 336 336 334 334 334 334 333 331 332 333 334 335 335 335 335 336 335 334 334 334 333 329 325 325 327 329 329 329 329 329 329 329 328 328 327 327 326 326 326 326 326
342 342 341 341 341 341 341 341 341 341 341 341 341 341 341 340 339 338 337 337 338 340 341 341 340 340 339 339 339 338 337 335 335 336 334 335 336 336 337 337 337 336 337 336 335 336 334 334 334 334 334 332 332 332 332 333 334 335 335 335 335 334 334 334 332 328 326 326 327 329 329 330 329 329 329 328 328 327 327 326 326 326 325 325 325
342 341 341 341 342 341 342 341 339 339 339 339 340 340 339 338 338 338 338 339 340 341 341 340 340 339 338 339 339 339 337 336 337 338 335 335 337 336 336 337 335 333 335 336 335 335 335 334 334 334 334 333 333 332 331 332 333 335 336 335 334 334 334 333 331 328 326 327 328 330 330 329 329 329 329 329 328 328 327 326 326 325 325 325 325
341 341 341 341 341 341 342 341 339 339 338 337 338 338 337 337 338 338 339 341 341 341 341 339 338 336 336 338 339 339 338 337 338 339 337 336 336 336 335 335 334 331 332 334 334 334 335 334 333 334 335 335 335 335 334 331 331 335 337 336 334 334 334 333 331 329 328 327 328 328 328 328 329 329 329 328 328 327 327 325 324 324 325 325 325
341 341 341 341 341 341 342 340 338 338 336 335 335 336 336 337 339 339 340 341 341 341 340 338 336 335 336 337 338 338 337 337 338 339 338 336 336 335 334 334 333 331 332 332 332 333 333 334 333 334 335 336 336 336 337 335 334 337 337 335 334 334 334 333 332 331 329 327 326 326 327 329 330 329 328 328 328 327 326 324 323 324 325 324 325
341 342 341 341 341 341 341 339 338 337 336 335 335 335 336 339 340 339 340 341 340 339 339 338 337 336 337 337 337 337 337 337 338 338 337 337 336 335 335 336 334 333 332 331 330 331 331 333 333 333 333 334 334 335 337 337 336 336 336 335 334 334 334 334 333 331 329 327 325 324 325 326 328 328 329 328 327 326 325 324 324 325 325 325 325
341 342 342 341 341 341 341 339 339 338 337 335 334 336 338 340 340 340 340 340 340 339 338 338 337 337 338 337 337 337 338 337 337 337 337 337 337 336 337 336 335 334 332 332 332 331 329 331 332 332 332 333 334 334 336 337 336 334 334 335 333 333 334 334 333 331 329 327 323 321 321 322 326 327 328 328 327 326 325 325 326 326 325 325 324
342 342 342 342 341 341 340 339 339 340 338 335 335 338 340 341 340 340 340 340 340 339 338 338 338 338 338 337 337 337 337 336 336 337 337 337 336 336 336 335 335 334 333 333 334 333 329 330 332 332 332 333 334 334 335 336 335 334 334 334 333 332 334 334 333 331 329 327 323 321 322 324 327 327 328 329 328 327 326 326 327 326 325 324 324
342 342 342 342 341 341 341 339 339 339 337 335 337 339 340 340 340 340 340 339 339 338 338 339 338 338 337 337 337 337 337 337 336 336 336 337 336 336 336 335 335 334 333 333 334 334 332 332 333 334 334 334 333 332 333 333 333 333 333 332 332 332 334 334 333 332 330 328 325 325 325 326 327 327 328 329 329 328 327 326 326 325 324 324 324
343 343 342 342 342 341 341 340 339 339 338 337 338 339 340 340 339 338 337 337 338 338 338 338 338 338 337 337 337 337 337 337 336 336 337 337 336 336 336 336 335 334 333 334 335 336 336 335 335 334 335 336 333 332 332 331 330 331 331 331 332 332 334 334 333 333 331 329 327 326 326 326 327 328 329 328 329 328 326 325 326 326 326 325 323
343 343 342 342 342 342 341 340 340 339 338 339 339 339 340 339 338 336 335 336 337 338 338 338 338 338 337 337 337 336 336 336 336 336 336 336 335 336 336 335 335 335 334 335 336 337 337 336 335 334 336 336 333 331 331 331 330 330 331 332 331 332 334 334 334 333 331 329 328 327 326 325 326 328 327 326 327 327 327 326 326 326 326 324 322
343 343 343 342 343 342 341 341 340 339 339 339 339 340 340 339 338 336 336 337 338 338 338 339 338 337 337 337 337 336 335 336 335 335 335 335 335 336 336 336 335 335 336 336 336 336 336 335 334 334 335 333 331 331 331 331 331 330 331 332 331 332 334 334 334 332 330 329 328 328 327 326 326 326 326 326 328 329 328 328 327 325 325 324 322
343 342 342 342 342 342 341 340 340 339 340 339 339 341 340 339 338 337 338 339 339 339 338 338 338 337 337 336 336 336 335 335 335 334 334 335 335 335 335 335 335 335 335 334 335 335 333 332 331 332 332 331 331 331 331 331 331 331 331 332 331 331 333 334 333 332 330 328 328 328 328 328 327 326 326 327 328 329 328 328 326 325 325 325 323
343 342 342 342 341 341 339 340 340 339 340 339 340 341 340 340 339 338 339 340 339 339 338 337 338 338 337 337 336 335 334 334 334 334 334 334 335 335 334 334 333 333 333 332 334 335 333 332 332 333 333 332 332 332 331 330 331 332 332 332 331 331 332 333 333 332 330 329 328 328 328 328 328 328 327 327 328 328 327 326 325 324 324 324 323
341 340 338 339 340 339 339 340 339 339 340 340 341 341 340 339 339 338 338 339 339 339 338 337 338 338 337 337 335 334 334 334 334 334 334 334 335 335 335 335 333 333 333 334 335 335 335 334 334 334 333 331 332 332 330 331 331 332 332 331 331 331 331 333 333 332 331 331 331 330 329 329 329 328 327 327 328 328 327 327 327 326 324 322 321
339 337 333 335 338 338 339 340 339 340 340 339 340 338 337 337 337 337 337 338 338 337 337 336 336 337 337 336 335 335 334 334 334 334 333 333 334 335 334 335 334 332 333 336 335 335 335 334 334 334 332 331 331 332 331 331 331 332 332 332 331 331 331 333 333 333 332 332 332 332 331 331 330 329 328 328 328 329 329 328 327 328 327 324 321
337 336 333 334 336 337 339 339 338 338 338 339 338 334 334 335 336 337 337 338 337 337 337 337 336 336 337 336 335 335 334 334 335 334 333 334 335 334 334 335 335 333 334 336 335 335 335 335 335 332 331 331 331 331 331 331 332 333 333 333 332 331 331 332 333 333 333 333 332 332 332 331 331 330 329 328 329 329 329 328 327 327 327 327 326
335 335 334 335 335 338 339 337 337 335 335 337 336 334 334 334 335 336 337 337 337 337 337 337 336 335 336 336 335 335 334 334 334 333 334 335 335 335 334 334 335 335 336 336 335 335 335 336 336 331 329 331 331 332 331 331 332 332 333 333 332 332 332 333 333 333 333 333 332 332 332 331 330 330 329 329 329 329 328 328 327 327 327 328 329
335 334 335 336 337 337 337 335 334 334 334 334 336 336 334 333 334 335 336 336 336 336 336 335 336 335 336 335 334 334 334 334 334 334 335 335 335 334 334 333 334 336 336 336 335 335 335 336 336 332 330 331 331 332 331 331 331 331 332 332 330 331 332 332 332 332 332 332 331 331 331 331 330 330 330 329 329 328 328 328 327 327 327 328 329
336 336 336 338 338 337 336 336 336 335 334 333 335 336 335 334 335 335 336 335 335 336 336 336 336 336 335 334 333 334 334 334 335 335 335 335 334 334 334 334 334 335 335 335 335 334 335 335 335 333 332 331 331 331 331 331 331 331 331 330 329 330 331 332 331 331 331 331 331 331 331 330 330 330 330 329 329 328 328 327 327 327 327 328 328
335 336 337 338 338 338 338 338 337 336 335 335 336 335 335 336 336 336 336 335 335 336 336 336 336 336 335 334 333 335 335 334 335 335 335 334 333 334 334 334 334 334 334 334 334 334 335 335 334 333 333 332 331 331 331 332 332 331 329 328 329 330 330 330 330 330 330 330 330 331 331 330 330 329 328 328 328 328 328 327 328 327 327 328 327
335 336 336 336 338 338 337 337 335 335 336 336 336 335 334 335 335 335 335 335 335 335 336 336 336 335 335 334 333 334 335 335 335 335 334 333 333 333 333 333 334 334 333 334 333 334 334 334 333 333 333 333 332 331 331 331 332 331 330 330 330 330 330 328 328 329 330 330 330 330 330 331 330 329 328 328 328 328 328 328 328 327 327 327 327
334 335 335 331 335 338 337 335 334 334 335 336 336 335 334 334 334 334 335 335 334 335 336 336 336 335 335 335 334 334 334 334 334 334 332 332 333 333 333 333 334 334 334 333 334 334 334 333 333 333 333 332 332 331 331 331 331 331 331 332 329 330 332 330 328 329 330 331 330 329 329 330 330 329 329 329 329 328 328 328 328 327 328 328 328
333 334 335 329 332 338 337 335 335 334 334 336 336 336 335 334 333 333 334 334 334 335 336 335 336 335 334 335 335 334 335 334 333 333 332 332 333 333 333 333 333 333 334 333 333 333 334 334 333 333 333 332 332 332 331 331 331 331 332 331 330 331 333 330 329 329 329 329 329 329 329 329 330 330 329 329 329 329 329 328 328 328 328 328 328
333 333 335 333 333 337 337 336 336 335 335 336 337 336 335 334 333 333 333 334 333 334 336 335 335 335 334 334 335 335 335 334 334 333 333 332 332 333 333 333 333 333 334 333 332 332 333 334 333 332 332 332 333 333 332 331 331 331 331 331 332 333 331 329 330 330 328 328 328 329 329 329 330 329 329 329 329 329 328 328 328 327 328 328 328
333 333 334 335 334 333 334 335 336 336 335 336 337 336 335 335 334 332 333 334 333 334 336 335 334 334 334 335 335 336 335 334 334 334 333 332 333 334 334 333 333 333 334 334 332 332 332 333 332 332 331 332 333 333 333 332 332 331 331 331 331 331 330 329 330 330 330 330 329 329 329 329 329 329 329 329 329 328 328 328 327 327 328 328 328
333 334 335 335 334 331 332 335 336 336 335 335 336 336 335 335 334 333 333 334 334 335 335 335 334 334 334 335 335 335 335 334 334 333 333 332 333 334 334 333 333 333 334 334 333 332 332 332 332 332 331 332 333 332 332 332 331 332 332 331 331 330 329 330 329 329 330 330 329 328 328 328 328 328 328 328 328 327 327 327 327 326 326 327 327
333 334 334 334 335 334 334 335 336 336 335 335 336 336 335 336 335 334 334 334 335 335 335 335 334 334 334 335 335 334 334 334 334 333 332 333 333 334 334 334 334 334 333 333 332 332 332 331 331 331 332 332 333 332 332 331 331 332 332 331 331 331 330 330 329 328 328 329 329 327 327 327 327 327 327 327 328 327 326 326 325 325 325 326 326
333 333 333 333 334 334 333 334 333 334 335 334 335 335 335 336 336 335 335 335 335 335 335 335 335 335 334 334 334 334 334 334 334 333 333 333 333 334 334 334 334 334 334 333 332 332 332 332 331 331 333 333 332 332 332 332 331 331 331 331 332 331 330 330 329 328 328 328 328 327 326 327 327 327 326 327 327 326 326 325 324 324 323 324 325
333 333 332 332 333 333 333 333 332 334 334 334 336 336 335 335 335 335 335 335 335 335 334 334 334 335 334 334 334 333 334 334 333 332 333 333 333 333 332 333 332 333 333 333 333 333 332 332 332 331 332 331 331 332 332 331 331 332 332 331 331 331 330 331 329 328 328 327 328 327 326 327 327 326 326 326 326 325 325 324 323 322 320 322 324
Wind_Speed
21 25 25 23 22 20 20 20 19 20 22 21 21 20 20 19 18 19 19 20 21 20 20 20 19 19 19 19 19 17 17 16 16 17 17 18 18 18 18 18 19 18 18 18 18 18 18 18 19 19 19 17 18 20 20 20 20 21 20 19 20 20 21 22 23 23 23 22 22 21 21 21 20 20 19 20 21 21 21 22 23 23 21 20 20
22 25 23 22 21 20 20 18 19 20 21 21 21 20 20 18 18 19 20 20 20 20 20 20 19 19 19 19 18 17 16 16 16 17 17 17 17 18 18 18 19 19 19 19 18 18 18 18 19 18 18 17 18 19 19 20 21 22 21 20 20 21 21 22 23 23 23 23 23 22 22 21 20 20 19 19 19 20 20 20 21 22 20 20 20
26 24 22 21 20 20 20 18 19 20 21 21 21 20 19 18 18 19 20 20 21 20 20 20 19 19 19 18 18 16 16 17 17 16 16 17 18 17 18 19 20 20 20 19 19 18 18 18 18 18 16 16 18 18 19 21 22 22 22 22 22 22 22 22 22 22 22 22 23 23 23 22 21 19 19 19 18 19 19 19 19 20 19 19 19
28 23 21 20 19 20 19 19 19 20 21 21 21 20 19 18 18 19 20 21 21 20 20 19 19 18 18 18 17 16 16 17 16 16 16 17 18 18 18 20 21 21 20 19 19 18 18 18 17 16 15 17 20 20 19 20 22 23 23 23 22 22 22 21 22 22 21 21 21 22 23 22 21 19 18 18 17 18 17 17 18 18 18 18 19
27 22 22 21 20 20 19 20 19 20 21 21 21 20 19 18 18 19 20 21 21 21 20 19 19 18 18 17 16 16 17 17 17 16 15 17 17 18 19 20 20 20 20 19 18 18 17 16 15 15 14 18 21 21 20 21 21 23 23 22 21 21 19 19 20 21 19 19 19 20 22 22 21 19 18 18 18 18 17 17 17 17 18 18 18
25 23 22 22 21 20 19 20 20 20 20 21 21 20 19 18 19 19 20 21 21 21 20 19 19 18 18 17 16 17 18 17 16 15 15 17 17 17 19 19 19 19 19 19 18 17 15 14 14 14 14 17 20 21 21 21 20 21 21 20 20 19 17 17 18 20 20 19 18 18 19 20 21 19 18 18 18 18 17 18 17 17 18 18 18
24 23 21 22 21 20 20 19 20 20 20 21 21 21 20 18 19 19 20 21 20 20 20 19 18 18 17 17 16 17 17 16 16 15 15 17 17 17 18 18 18 18 18 18 17 16 15 14 13 13 13 16 19 20 20 20 19 19 18 17 17 17 17 17 15 14 15 17 18 17 18 19 19 19 17 17 18 18 18 18 17 18 18 18 18
24 20 19 21 20 20 20 20 20 20 20 20 21 21 20 20 20 19 20 20 20 20 20 19 18 18 17 17 16 16 15 15 15 15 15 17 16 16 17 17 16 16 16 16 16 15 14 13 13 12 11 13 18 19 19 18 17 16 15 15 14 14 13 11 8 8 9 13 17 17 18 19 19 19 18 18 18 17 17 17 17 17 18 18 18
22 19 20 22 21 21 21 21 21 20 20 20 21 21 21 21 20 20 20 20 20 20 19 19 17 17 17 17 16 15 14 14 15 14 15 16 16 14 16 16 14 14 15 15 14 14 12 12 12 11 9 11 16 17 17 16 15 13 13 12 10 9 8 10 10 14 17 19 19 18 19 19 19 19 18 18 17 17 17 17 17 17 18 18 18
22 21 23 24 22 21 21 21 21 21 21 21 21 22 22 21 21 20 19 20 19 19 19 17 17 17 17 16 16 15 14 14 14 14 15 16 15 12 14 15 13 14 14 14 13 13 11 10 9 8 8 10 13 15 15 13 12 11 10 8 8 9 12 17 19 21 22 20 18 18 18 18 19 18 17 17 17 17 17 17 17 17 17 18 19
23 23 25 25 22 21 22 21 21 22 21 21 22 22 23 22 22 20 19 19 19 18 17 16 17 18 16 15 16 15 14 14 14 15 16 15 14 12 13 14 13 13 13 12 12 11 10 9 8 8 8 9 11 13 13 11 11 10 10 10 11 15 18 21 22 21 20 19 19 18 18 17 18 17 16 17 16 16 17 17 17 16 17 18 18
26 26 26 25 23 22 22 22 21 21 21 21 22 23 23 23 22 20 19 18 19 18 16 16 18 17 15 14 16 15 14 14 14 15 15 14 13 13 13 13 12 12 12 11 11 9 8 8 8 8 9 8 10 12 11 10 11 11 12 13 16 19 22 21 19 18 17 16 18 19 19 18 18 17 16 17 17 16 16 16 16 16 17 17 18
28 28 28 27 26 24 23 22 21 21 21 22 22 23 24 23 21 19 18 19 20 18 16 17 18 16 14 15 15 14 13 13 14 15 15 14 13 13 13 13 12 12 11 10 9 8 7 8 8 8 8 8 10 11 11 11 12 12 13 14 16 19 20 20 16 15 15 16 18 20 21 19 18 17 17 17 16 16 16 16 16 17 17 17 17
29 30 30 29 28 26 24 23 22 22 22 22 23 23 23 22 20 19 20 21 21 19 18 18 18 15 15 16 15 14 13 14 14 14 14 14 14 14 13 12 12 11 10 9 8 7 7 8 7 7 7 8 10 11 12 12 12 12 13 14 16 19 20 19 17 16 17 19 21 22 21 19 18 17 17 17 16 16 16 16 17 17 17 17 17
28 30 29 29 29 27 26 25 25 24 24 24 24 23 23 22 21 21 22 23 21 19 18 18 17 15 17 16 15 14 14 14 14 13 14 14 14 14 13 12 12 11 9 8 7 7 8 8 7 7 8 8 10 13 14 13 12 12 12 14 17 18 19 19 17 17 18 19 21 21 21 19 17 16 17 17 17 17 16 17 17 17 17 16 16
28 30 29 29 28 28 27 27 26 25 25 25 24 24 24 23 22 23 24 23 21 19 18 18 17 17 18 17 15 14 13 14 14 13 13 13 14 13 13 12 11 10 9 7 7 8 8 8 7 8 8 9 11 14 15 13 11 11 12 15 18 19 18 19 18 17 18 19 20 21 20 18 17 17 16 16 16 16 16 17 17 17 17 16 16
28 29 28 28 28 28 28 27 26 25 25 25 24 25 24 24 24 25 24 22 21 20 19 19 18 19 19 17 15 13 13 12 13 13 13 13 13 13 12 11 11 10 9 7 7 8 8 7 7 8 9 10 12 15 15 12 11 12 13 16 19 19 19 19 18 17 17 18 19 19 18 17 17 17 16 16 16 16 16 16 16 17 16 16 16
28 28 28 28 28 28 28 27 26 26 26 25 25 25 25 25 25 26 24 23 22 21 20 20 19 19 18 16 15 13 13 11 13 13 13 13 13 12 12 11 10 10 8 7 7 8 7 8 8 9 10 10 12 16 15 12 12 13 14 15 17 18 19 18 17 16 16 16 17 18 18 17 16 16 15 15 15 15 15 15 16 16 16 16 16
27 28 28 28 28 28 27 27 26 26 26 26 26 25 25 26 26 25 24 23 22 21 21 20 19 19 17 16 14 13 12 11 12 14 13 13 13 12 12 11 10 9 7 6 7 7 8 8 8 9 10 10 12 16 15 13 13 13 14 16 18 18 17 14 15 14 14 15 16 19 20 17 15 15 15 14 14 14 15 15 15 15 15 16 16
25 26 28 28 28 27 27 26 26 26 26 27 26 25 25 25 25 24 24 22 21 22 21 20 19 19 17 15 14 13 12 11 12 13 13 12 13 12 12 11 9 7 6 6 7 7 8 8 8 9 10 11 13 16 15 13 13 13 15 18 17 18 16 13 13 12 13 15 16 18 18 17 16 15 14 14 13 14 14 14 15 15 15 15 15
22 23 25 27 27 26 26 25 25 26 26 26 25 24 24 24 24 23 23 22 22 22 21 19 20 20 18 16 14 14 13 11 12 12 12 12 12 12 11 10 8 6 6 6 6 7 8 8 9 9 10 13 14 16 14 13 14 14 16 19 16 16 15 13 12 13 13 15 17 18 17 16 15 14 14 14 14 14 14 14 14 14 14 15 15
21 21 23 26 26 24 24 25 25 25 25 24 23 23 23 24 24 23 22 22 23 22 21 20 22 21 19 17 15 14 13 12 12 12 12 12 12 12 12 10 9 7 7 7 5 7 8 8 9 9 11 13 14 14 13 13 14 13 15 19 17 15 13 12 12 14 15 16 17 17 15 14 14 14 14 14 14 13 13 13 14 14 14 15 15
20 20 22 24 24 23 24 25 25 26 25 23 23 23 24 24 24 23 22 23 23 21 22 23 24 22 20 19 17 15 14 13 12 12 12 12 12 12 12 10 9 8 8 8 7 7 8 8 9 9 11 11 12 11 10 11 13 13 14 18 16 13 12 11 12 14 15 16 17 16 15 13 12 13 13 13 13 13 13 13 14 14 14 14 14
19 19 21 22 23 23 23 25 26 26 25 24 23 23 24 24 24 24 23 22 22 22 24 25 25 23 21 20 18 16 15 14 13 12 12 12 12 12 11 10 9 7 8 9 8 8 9 9 8 9 10 11 11 9 8 8 10 12 12 14 14 11 9 10 13 15 15 15 16 16 14 12 11 12 13 13 13 12 12 13 13 14 14 13 13
17 18 19 21 22 23 24 25 26 26 25 25 24 24 25 25 24 24 23 22 22 24 25 25 24 23 21 20 18 17 15 15 14 14 14 14 13 13 11 10 8 5 7 9 8 8 10 10 8 10 11 10 9 7 7 5 5 8 9 9 12 9 8 10 12 12 12 14 15 14 13 12 12 12 12 12 12 12 12 11 12 13 14 13 13
17 18 19 20 22 22 24 26 27 27 26 26 26 25 25 25 24 24 23 23 23 25 25 25 24 22 21 21 19 17 16 16 15 14 14 14 14 12 11 9 7 5 6 8 7 7 11 11 9 11 10 9 7 5 6 4 4 6 5 7 9 7 9 9 9 10 11 14 15 14 13 13 12 11 11 12 12 12 11 11 12 13 13 13 13
18 17 18 20 22 22 25 28 28 28 27 27 27 26 25 25 24 24 24 23 24 25 25 25 23 22 21 21 20 18 17 17 15 14 14 14 13 12 9 8 6 5 6 7 7 6 10 11 11 11 9 8 4 5 9 7 5 6 6 8 7 7 8 8 7 9 12 14 15 15 14 13 12 11 11 11 11 12 11 11 12 13 13 13 13
19 18 19 21 23 25 26 29 29 28 28 28 28 27 25 23 23 24 24 23 23 24 23 23 22 21 20 20 21 19 18 18 16 14 14 14 13 11 9 7 6 4 5 8 8 5 7 11 10 9 8 5 3 5 10 11 7 6 7 8 7 7 8 7 7 10 12 14 15 14 14 14 13 12 12 11 11 11 11 11 12 11 12 12 12
20 21 22 23 26 26 25 28 29 28 29 29 29 27 25 23 23 24 24 23 22 22 21 21 20 20 20 20 20 19 18 18 17 15 14 13 12 11 8 6 5 3 5 7 7 4 6 10 9 7 6 4 6 5 11 11 8 7 7 7 6 7 9 8 9 12 13 14 15 14 14 15 14 13 12 11 10 10 10 11 11 11 11 12 12
21 23 25 26 27 26 24 26 29 29 30 29 28 27 26 24 24 24 24 24 23 21 20 19 19 19 19 19 19 18 18 17 17 15 13 13 12 11 7 6 6 5 6 7 7 7 8 9 8 7 6 4 2 3 11 12 8 7 6 6 7 9 10 10 10 12 14 14 15 14 14 15 14 13 12 11 10 10 10 10 10 10 11 12 12
22 24 27 27 27 26 25 25 28 29 28 26 25 26 27 26 24 24 24 23 24 22 19 19 18 17 17 18 18 17 17 16 17 16 13 12 12 10 8 8 8 8 8 7 7 9 10 10 11 11 6 2 7 9 11 13 9 6 6 6 8 11 11 11 11 12 13 13 14 14 14 14 15 14 12 11 11 10 9 10 11 10 11 10 10
23 25 27 27 25 25 25 25 26 27 26 24 25 26 26 26 24 24 24 23 23 21 19 17 16 15 16 17 18 17 16 16 17 16 12 12 12 10 9 10 9 9 10 8 7 8 9 9 11 12 7 3 9 12 11 12 10 7 7 7 9 11 12 11 10 11 13 13 13 14 14 14 14 13 12 12 11 10 9 10 10 10 9 8 8
23 25 28 28 25 24 26 27 26 26 27 26 26 25 24 25 24 22 23 22 21 20 18 16 14 16 17 16 17 16 15 16 16 14 11 12 12 10 8 10 10 10 10 8 8 8 9 9 10 11 8 5 9 13 12 11 10 8 8 9 10 12 14 12 11 12 14 14 13 13 14 14 13 12 12 12 11 10 9 10 9 8 8 8 8
24 25 27 27 25 25 27 27 26 28 30 28 26 24 23 24 23 21 20 19 19 19 17 15 14 16 16 15 15 15 15 15 14 12 12 13 12 10 9 9 10 10 9 8 9 10 9 9 10 11 9 8 11 13 11 11 8 8 10 10 10 12 14 13 12 13 14 14 13 13 14 13 13 12 12 12 11 10 10 9 9 9 9 9 8
24 25 26 26 25 27 27 25 26 30 30 28 26 24 24 24 22 20 18 17 18 18 17 16 15 15 15 14 14 14 15 15 14 13 14 14 12 12 11 10 10 10 9 9 9 10 9 9 10 10 9 12 14 12 9 9 9 9 10 10 10 12 14 14 14 15 15 15 14 13 14 13 12 11 11 12 12 11 10 10 10 10 10 9 8
21 21 20 23 25 26 27 25 26 30 28 26 25 24 23 22 20 17 16 16 17 17 18 17 16 16 15 14 15 15 15 15 14 14 14 14 12 12 12 12 12 11 10 10 9 10 9 10 11 8 11 14 12 12 11 10 10 11 12 12 12 13 15 15 15 15 14 14 13 13 12 12 11 11 11 12 12 11 10 10 10 10 11 10 10
23 20 15 16 20 24 24 24 26 27 27 26 22 20 21 19 17 15 14 15 16 17 16 16 17 17 16 14 15 15 14 14 15 14 13 13 14 13 13 13 13 13 13 12 11 11 11 12 10 8 13 16 12 12 13 10 11 14 13 13 13 14 15 16 15 13 13 13 12 12 11 10 10 10 11 11 11 10 9 10 10 11 11 10 11
23 22 19 13 12 15 15 17 21 19 22 25 15 12 15 14 15 14 13 14 14 15 14 13 15 17 18 17 15 14 13 14 15 14 12 13 14 13 13 13 13 13 15 14 12 12 11 11 10 15 17 15 12 12 12 13 15 15 15 14 14 14 15 15 14 12 12 12 12 11 10 10 10 10 11 11 11 10 9 10 11 11 12 10 9
19 18 19 16 13 14 11 9 12 11 16 21 13 10 12 12 13 11 11 14 14 14 13 12 14 16 18 18 16 14 12 13 13 13 11 12 13 13 14 14 13 12 14 14 12 12 11 11 10 17 18 12 10 12 14 16 16 13 13 12 11 13 14 14 13 11 11 12 12 11 10 10 11 10 11 11 11 11 10 10 11 11 10 9 7
20 18 19 20 18 14 10 5 10 15 17 18 17 17 15 12 11 10 12 16 15 15 14 13 15 16 17 17 17 15 14 14 13 12 11 12 14 14 14 15 14 13 13 13 12 11 11 12 11 13 19 17 15 15 16 17 16 13 10 9 8 9 12 14 12 11 11 11 10 11 11 11 10 10 10 10 11 11 10 10 11 11 9 8 6
22 23 21 21 19 16 15 10 10 15 16 20 25 25 20 17 17 16 16 17 16 15 13 14 15 16 16 17 18 17 16 17 16 15 15 16 17 15 14 15 15 14 13 13 13 12 11 12 12 11 16 21 21 18 19 19 18 14 8 7 10 10 10 12 10 9 10 10 9 11 12 11 10 10 10 11 11 12 11 10 10 11 10 8 7
23 22 21 18 18 19 21 20 18 21 21 22 25 25 24 23 24 24 22 20 18 16 14 14 15 16 16 18 20 18 17 19 19 18 18 18 17 16 15 15 14 14 13 14 14 14 13 12 13 12 13 17 20 20 22 19 16 13 9 7 8 8 7 8 9 9 8 8 9 11 11 11 11 11 11 11 12 12 11 10 10 10 10 9 8
24 27 28 19 20 22 22 22 22 22 22 23 23 23 24 23 21 23 24 22 19 17 16 16 17 17 18 19 21 20 17 19 19 19 19 18 16 15 15 14 14 13 13 14 14 14 14 12 13 14 14 15 17 20 21 16 16 17 12 6 3 3 3 4 7 9 8 7 8 10 10 10 11 12 12 11 11 11 11 10 10 10 9 9 7
26 34 38 26 25 28 25 25 26 25 26 27 25 23 22 21 18 19 22 20 17 16 17 19 20 21 20 21 22 22 19 18 20 20 18 17 15 14 14 14 13 12 13 13 13 15 14 13 12 12 13 16 17 18 16 15 21 21 9 3 2 2 1 2 5 6 7 8 7 9 10 10 12 12 12 11 11 11 11 11 9 9 9 7 7
27 31 37 33 30 34 32 29 30 29 28 31 29 25 24 21 18 18 19 16 16 17 18 21 23 23 22 22 22 22 20 19 19 19 18 17 14 13 14 13 12 12 12 11 12 14 14 13 13 11 13 15 16 17 13 15 23 20 10 7 5 1 1 4 6 5 6 8 8 9 10 10 11 12 13 12 12 11 10 10 10 9 9 8 8
25 26 32 34 34 35 34 31 31 30 31 33 32 31 30 27 25 24 21 17 17 20 22 24 25 24 23 22 22 21 19 19 18 18 17 16 14 13 13 12 12 13 12 11 11 12 12 13 13 13 13 13 14 17 15 16 19 14 11 10 3 4 10 9 5 3 5 8 8 9 9 9 11 12 13 12 11 11 11 11 10 10 10 9 9
24 26 29 30 31 31 32 32 30 29 30 31 31 33 34 33 31 30 27 23 23 23 24 25 25 25 23 22 21 20 18 18 17 16 15 15 14 13 12 11 11 12 11 10 11 11 12 13 13 13 14 15 17 19 18 18 16 11 11 9 4 12 22 15 6 4 4 5 8 11 10 10 12 13 13 12 11 12 12 13 13 12 12 10 9
22 25 26 25 27 30 30 32 31 29 29 27 28 34 37 37 35 32 30 28 27 26 25 24 23 23 22 22 21 19 17 17 16 15 14 14 15 13 11 10 10 11 11 10 9 9 10 11 12 13 14 18 20 19 20 19 17 13 10 8 8 18 21 13 14 13 6 3 6 9 10 11 13 13 13 13 14 16 17 17 16 14 13 12 11
22 24 25 23 24 26 25 26 25 25 26 24 22 26 30 32 34 33 31 29 28 26 24 23 22 22 21 21 20 20 19 18 16 16 15 16 17 16 13 12 11 11 12 11 9 10 10 12 14 14 15 18 18 17 19 18 17 15 12 12 16 18 14 12 17 17 10 7 4 4 8 11 10 11 12 13 17 20 20 19 16 14 13 13 13
22 24 24 22 21 17 13 11 11 14 20 21 17 18 20 22 26 31 31 29 26 24 24 23 21 21 21 21 21 21 19 18 16 16 16 17 17 17 15 13 12 12 12 13 13 13 13 14 15 15 14 16 16 15 16 15 15 15 13 16 18 16 14 12 15 17 12 8 6 6 10 10 9 9 11 15 20 21 20 18 16 13 13 15 16
26 27 23 20 16 8 4 3 3 6 12 17 16 14 17 18 21 26 29 27 25 26 26 24 22 22 21 21 21 20 18 17 16 16 17 17 16 17 15 12 13 14 12 13 14 13 14 14 14 13 13 14 16 16 15 14 15 14 12 15 17 17 15 13 16 19 14 9 9 8 10 13 12 12 14 17 22 22 18 17 16 12 13 16 18
Wind_Direction
151 153 150 152 152 152 153 152 147 147 146 148 148 146 143 140 137 135 136 137 136 134 132 129 127 126 126 125 122 119 115 113 109 105 102 101 101 100 98 95 92 90 88 86 87 89 89 90 94 95 96 94 96 99 97 97 99 99 98 96 96 96 97 97 97 96 95 92 89 86 85 85 85 84 84 85 85 84 82 81 80 78 75 75 74
153 150 150 151 151 150 151 150 147 147 146 148 149 147 144 141 139 137 139 139 137 136 133 131 129 128 128 128 125 120 116 114 111 108 105 104 103 101 99 97 94 91 89 87 87 88 90 92 95 98 96 92 93 95 96 98 100 101 100 98 96 95 96 97 97 97 95 93 90 88 86 85 84 83 82 83 84 84 83 81 81 79 76 75 74
149 146 147 148 147 147 148 149 148 147 147 149 149 148 144 142 140 140 142 141 139 137 135 133 131 130 130 130 126 122 117 115 111 108 106 105 103 102 100 97 93 90 88 88 88 88 90 93 96 97 93 93 95 93 97 103 104 103 102 101 99 95 93 94 95 94 93 92 92 90 87 85 83 82 82 82 84 85 84 83 82 82 79 77 75
143 141 140 141 143 144 146 147 148 148 148 150 150 149 146 144 141 143 144 143 141 139 137 134 133 132 131 130 126 122 119 115 112 109 107 106 105 104 101 98 94 90 88 87 89 90 93 94 93 93 95 102 101 99 102 106 107 106 105 104 102 98 96 95 93 91 89 89 89 88 84 82 81 80 83 84 84 83 84 84 84 85 82 80 76
130 130 132 133 138 142 146 147 148 149 149 151 151 150 147 145 143 145 147 145 143 140 138 135 134 133 131 129 126 123 121 117 113 110 108 109 109 107 104 99 95 93 90 87 87 90 94 94 91 88 99 110 107 108 109 107 107 107 108 106 104 102 99 96 93 92 88 86 85 84 82 81 80 79 81 84 84 82 83 84 84 85 83 81 77
115 119 126 130 136 143 148 150 150 150 150 151 152 152 150 147 144 146 149 147 144 142 139 137 135 133 132 128 126 125 122 119 116 113 111 111 112 110 106 101 98 95 92 91 88 87 88 90 93 94 104 115 114 114 112 111 109 108 110 108 106 106 103 100 99 96 89 85 85 86 83 80 81 80 81 84 86 85 85 85 85 86 84 82 80
104 111 122 131 138 146 152 152 151 151 150 151 153 153 151 148 146 148 150 149 146 144 141 139 137 135 132 129 127 126 124 122 120 117 115 114 114 113 108 104 101 98 96 95 92 87 84 83 88 96 107 119 121 117 114 114 112 111 111 108 107 106 107 107 106 99 89 89 90 90 85 83 86 84 84 86 86 86 86 85 86 87 86 84 82
102 111 127 136 142 150 155 153 152 151 150 152 153 154 152 149 148 149 151 151 149 146 144 142 140 138 134 130 128 126 125 124 124 121 119 117 116 117 112 108 105 103 101 98 95 91 89 85 85 91 102 121 127 121 117 117 115 116 114 112 108 104 107 101 93 81 87 100 96 91 89 88 89 88 87 87 86 86 86 85 86 88 87 86 85
112 126 137 142 148 151 154 153 153 151 150 153 153 153 152 151 151 153 154 153 153 149 147 145 143 140 136 132 129 127 127 129 129 125 122 120 121 124 118 114 112 109 103 100 98 94 92 90 91 96 101 123 131 126 121 120 120 119 116 112 102 94 71 58 75 89 99 110 102 95 95 94 91 88 87 86 86 87 87 86 88 89 89 88 87
132 143 144 144 148 151 154 153 154 152 151 151 152 154 154 155 155 156 157 156 155 152 148 146 145 143 138 134 134 132 132 136 134 130 128 127 132 132 121 117 115 109 103 100 99 98 97 98 100 103 107 125 136 133 127 124 123 119 112 101 85 64 53 72 94 101 104 108 102 97 98 96 92 89 88 88 88 89 87 87 88 89 90 90 89
140 145 141 141 147 153 155 155 155 154 152 151 153 156 157 158 157 156 156 158 157 154 149 149 148 145 140 138 142 139 139 142 137 135 133 135 140 133 121 118 114 109 104 101 102 103 105 105 103 101 104 121 136 135 132 128 119 112 102 85 72 62 70 93 104 103 102 99 94 94 97 97 91 88 88 88 89 90 88 87 87 88 89 90 89
136 140 139 140 148 155 156 155 154 154 155 155 157 158 158 157 156 155 154 159 159 155 151 151 152 148 142 142 149 146 146 146 141 139 138 141 140 132 125 120 118 114 109 106 108 108 107 103 97 95 96 111 129 134 134 127 115 105 93 80 70 68 82 102 107 104 99 93 93 93 95 96 92 90 89 87 89 91 89 87 87 87 88 90 89
134 141 145 146 150 155 154 153 152 154 156 157 160 159 159 158 157 156 155 159 157 154 151 153 155 153 146 146 153 152 152 150 146 144 144 146 140 134 131 125 123 118 115 115 116 115 111 100 91 89 93 107 123 131 131 125 114 100 85 73 66 72 91 106 108 102 92 88 93 96 96 96 93 93 91 90 91 91 90 87 87 86 87 88 89
138 145 150 150 151 153 152 152 152 154 157 158 160 159 161 162 160 158 155 155 154 155 153 154 158 156 151 152 154 155 155 152 151 150 150 151 144 140 136 130 126 123 124 124 123 125 116 98 87 87 91 105 120 128 131 125 111 93 75 66 66 78 99 108 104 95 89 90 94 97 96 95 94 93 93 92 91 93 92 89 88 88 89 90 91
142 148 150 151 151 151 152 153 156 158 160 159 159 160 162 163 160 157 154 153 154 156 154 154 157 156 154 154 154 155 157 156 154 152 153 154 149 145 141 136 131 132 134 130 129 126 111 94 87 90 93 100 117 130 131 122 103 86 73 70 68 80 105 113 104 93 90 94 97 98 96 94 94 94 94 93 92 94 94 91 91 90 89 90 91
147 151 150 151 151 151 153 156 159 160 161 161 160 162 163 160 158 156 154 154 156 154 152 154 154 155 155 155 155 157 159 159 159 156 154 153 152 150 147 142 139 140 139 137 131 120 107 95 90 92 95 99 117 134 132 116 98 86 77 74 68 77 109 116 103 94 91 94 97 101 100 97 97 96 95 94 94 94 94 93 93 92 89 88 89
151 152 152 152 154 155 157 158 160 160 161 162 163 164 162 159 158 157 156 157 158 156 154 155 154 154 155 156 156 157 158 159 162 161 158 155 155 156 152 148 146 145 143 141 124 115 109 97 92 95 97 100 119 136 132 114 99 88 79 77 70 81 112 115 101 95 91 93 98 103 104 102 99 97 95 95 95 94 95 95 95 94 91 90 89
152 154 154 153 156 157 158 158 159 160 161 163 164 165 163 160 159 158 159 161 160 158 157 157 157 157 157 158 157 157 158 160 164 165 165 162 161 158 155 154 154 152 151 141 119 115 111 99 96 101 101 100 121 136 131 114 101 87 80 75 71 91 117 113 100 95 91 95 100 101 100 100 99 98 98 97 96 95 96 95 95 94 91 91 90
154 155 154 156 158 158 159 158 160 161 161 162 162 163 163 162 161 162 162 161 161 161 160 159 160 160 160 160 158 158 159 162 166 170 171 170 169 164 159 158 155 159 161 137 119 121 115 103 101 107 106 102 121 134 129 114 99 86 80 69 73 101 117 107 97 90 90 99 104 105 103 102 100 99 100 99 99 97 95 95 95 93 92 94 93
153 154 155 158 160 160 160 159 161 161 161 161 162 163 164 165 165 164 162 161 162 162 161 161 163 163 162 162 159 158 159 164 169 173 176 177 176 171 166 161 157 161 159 130 119 128 122 109 108 113 112 108 120 132 126 113 97 86 76 62 77 110 116 104 92 83 88 98 103 107 108 107 103 102 101 99 99 96 95 96 95 94 93 94 94
155 158 159 161 161 161 159 158 160 161 162 162 162 164 166 168 166 164 163 161 162 162 161 163 166 165 164 164 163 161 163 166 170 177 182 184 183 180 174 166 161 155 139 123 121 134 130 117 115 118 120 116 122 127 121 110 93 86 74 63 88 117 110 96 83 79 91 99 99 99 102 104 103 102 102 99 98 98 98 97 95 95 95 94 94
158 162 162 162 160 159 159 160 161 163 164 162 164 164 167 168 166 165 164 162 163 162 161 164 166 166 165 164 165 166 166 168 171 180 185 188 188 184 180 170 166 158 136 127 127 140 140 130 122 121 129 129 130 127 119 109 91 89 79 73 102 121 105 93 81 83 93 99 103 105 105 104 104 104 103 102 100 100 98 98 97 96 97 96 95
161 164 163 161 160 158 160 162 162 165 165 164 165 165 167 168 166 166 164 164 166 165 162 162 163 165 167 166 168 170 169 169 170 176 181 187 187 184 182 175 178 174 156 146 139 148 151 143 134 128 135 139 141 137 126 112 92 93 84 80 108 120 105 97 86 88 93 97 102 104 106 105 107 107 105 104 102 102 100 100 100 98 98 98 97
164 164 162 161 162 159 161 163 163 166 166 165 166 166 169 169 167 167 166 167 169 165 161 161 162 165 169 169 171 173 171 169 168 169 175 183 184 182 178 176 185 180 170 168 155 155 161 158 148 136 137 138 140 142 140 130 103 91 77 84 113 117 103 102 95 93 93 98 103 107 111 109 106 107 108 106 104 103 102 102 102 103 101 100 98
163 164 163 162 163 163 164 164 165 169 168 167 167 167 169 170 169 167 167 170 168 163 160 161 163 167 171 173 175 174 172 170 169 170 175 179 179 178 177 177 185 171 170 179 170 165 168 168 159 147 141 140 141 138 143 156 125 90 63 89 120 118 110 110 103 98 98 104 112 118 118 111 107 110 111 108 107 105 103 105 108 109 104 100 99
162 165 166 165 167 169 167 166 169 173 171 169 167 166 169 170 168 166 168 169 168 163 160 163 167 171 173 176 179 178 176 174 174 175 176 179 180 179 178 178 179 167 167 173 175 178 175 173 167 158 152 154 163 168 173 180 144 123 91 106 122 126 124 116 105 103 109 111 113 115 113 114 116 116 114 112 110 108 106 104 105 107 103 100 100
161 164 168 169 173 175 172 171 174 175 173 170 167 168 169 169 166 166 167 169 170 167 164 168 171 174 175 178 181 182 181 178 179 179 178 180 181 179 175 169 164 166 169 162 163 172 180 181 172 169 169 171 194 227 204 184 161 161 150 137 132 141 138 122 109 111 114 112 111 114 116 122 122 117 116 114 112 111 109 104 103 105 103 102 101
161 164 169 176 182 182 177 176 176 174 172 170 169 169 167 168 170 170 171 174 175 172 171 172 174 176 178 181 182 183 185 182 180 180 178 178 178 175 171 167 159 158 167 163 158 156 181 182 170 174 183 191 264 247 194 179 187 190 170 162 151 156 155 134 120 120 117 111 112 116 119 120 118 115 116 115 112 111 111 107 105 108 108 109 107
165 169 173 181 188 186 180 177 176 174 173 173 171 168 166 171 176 176 176 180 182 178 177 176 176 178 181 185 187 187 188 186 181 178 176 175 172 167 167 177 176 174 180 178 182 186 181 170 158 170 199 247 285 233 184 174 188 189 173 172 167 172 164 142 130 124 118 114 113 116 117 117 116 115 116 116 115 112 112 112 113 114 112 109 105
170 173 177 183 189 186 181 181 178 177 176 174 171 168 170 175 179 181 180 183 186 183 181 181 181 182 186 191 196 195 192 188 180 175 176 176 170 165 176 201 204 209 214 207 209 208 186 176 181 191 213 256 315 176 176 166 162 167 161 162 167 172 162 147 140 125 119 117 115 117 118 119 119 116 117 118 119 117 118 119 118 117 113 110 108
168 172 180 184 186 183 182 183 182 180 174 170 172 175 178 180 181 184 183 183 185 184 184 185 185 187 191 196 198 198 194 186 179 176 178 176 169 167 185 201 203 205 208 199 187 182 172 177 191 187 180 121 90 110 149 148 141 141 134 143 161 169 165 159 149 128 123 123 121 124 123 122 121 121 125 126 126 124 121 119 119 120 119 117 115
169 174 182 183 181 180 182 184 184 180 170 168 176 180 184 186 186 185 182 182 183 185 186 188 191 190 192 194 192 193 191 186 181 180 180 177 173 173 182 190 194 192 190 187 175 172 171 166 176 179 171 120 105 108 123 129 126 120 126 151 164 170 170 164 153 136 132 132 130 130 125 123 125 128 132 131 128 125 118 115 118 122 122 120 115
173 182 183 181 178 177 183 186 184 177 170 175 179 180 188 191 190 186 182 182 183 187 188 187 188 186 188 192 192 191 188 188 187 184 180 173 171 171 175 182 186 183 177 180 180 180 182 174 176 181 179 155 122 117 118 115 113 123 143 161 162 166 168 163 158 147 140 138 137 137 130 125 125 128 130 127 127 126 121 118 118 118 118 117 114
175 188 184 178 177 179 185 186 182 176 174 180 179 178 190 193 191 187 181 180 180 184 185 181 181 183 186 189 192 189 181 184 188 186 176 164 160 161 164 170 174 181 182 180 174 169 170 171 169 167 159 140 124 121 122 115 118 140 149 157 160 159 164 166 161 152 144 139 139 141 137 132 129 128 130 130 132 131 127 124 120 118 120 121 116
177 187 185 180 179 182 186 184 181 178 175 180 179 178 186 190 191 188 181 176 174 175 173 172 175 178 179 178 179 179 179 184 185 179 171 163 160 162 167 165 160 166 178 175 161 157 158 154 157 158 137 125 123 121 125 130 143 155 150 157 161 156 163 168 161 153 147 142 142 143 140 139 137 137 137 138 140 138 131 120 113 113 114 118 120
177 185 187 184 180 183 188 184 180 179 179 182 178 175 178 181 186 187 182 177 172 172 172 172 176 174 172 171 168 170 178 184 185 181 175 172 167 166 171 167 157 154 161 167 163 163 165 160 167 167 136 129 129 128 132 138 140 146 151 157 160 162 166 165 159 154 153 152 153 151 146 143 144 147 149 149 149 144 136 126 120 118 111 110 116
174 179 185 192 185 184 188 182 177 176 181 184 175 173 177 170 169 174 176 178 176 176 178 179 179 176 174 173 170 169 174 181 187 186 182 181 173 171 174 166 160 158 162 173 174 172 172 171 166 140 137 143 146 145 144 145 141 140 144 148 158 166 167 163 160 157 161 164 163 160 155 150 152 157 159 161 158 152 146 138 133 129 121 114 112
166 171 172 187 194 191 189 181 177 168 173 180 166 155 168 160 159 166 168 175 181 176 176 180 179 180 181 178 175 172 175 178 184 188 183 178 172 172 172 165 165 166 170 177 176 173 170 173 150 118 131 151 155 159 157 147 142 141 141 144 158 164 161 162 163 163 168 173 171 166 163 162 169 169 167 171 168 163 157 149 142 134 129 123 119
154 165 163 170 186 200 204 181 163 133 150 176 173 147 152 157 168 173 172 177 182 170 164 175 183 188 186 184 184 182 183 179 180 187 181 172 170 172 173 170 170 171 174 176 173 173 166 170 156 118 120 141 154 157 156 143 137 145 150 148 159 162 158 160 163 166 170 173 174 172 170 169 170 171 173 176 173 169 165 157 151 142 136 135 136
142 153 151 159 167 180 190 143 114 112 125 153 167 164 149 145 161 166 178 186 182 170 166 177 188 195 194 192 192 187 187 184 180 184 180 177 179 180 178 174 175 176 178 176 169 173 170 171 173 130 119 130 139 145 157 150 131 132 146 139 139 152 160 158 154 162 167 168 169 169 171 168 165 169 176 177 171 168 165 160 157 154 150 147 139
134 148 145 149 153 158 174 173 159 164 161 153 160 171 164 158 165 168 182 193 185 172 174 184 192 200 201 195 191 186 186 185 181 183 185 188 188 186 182 176 179 182 182 181 174 175 177 174 173 147 130 136 139 144 156 149 126 120 134 120 107 120 152 158 149 156 162 162 164 165 169 170 168 168 173 173 167 164 162 157 158 159 157 153 145
127 146 143 146 160 168 183 191 192 191 183 164 163 175 180 175 174 175 183 193 187 172 173 189 196 200 198 187 184 184 183 182 181 184 189 191 190 189 188 182 181 183 184 184 181 177 173 173 168 151 140 141 143 148 151 144 130 129 135 112 88 97 131 145 143 150 152 155 165 167 168 169 169 168 169 170 165 163 161 155 155 156 154 152 151
129 146 144 157 186 183 189 197 194 184 168 160 166 178 186 185 181 182 185 188 185 173 170 183 187 187 186 181 185 188 182 181 184 188 191 192 190 190 191 187 182 181 185 184 183 178 167 165 165 151 146 145 147 155 154 149 142 137 132 114 93 101 100 111 129 139 145 148 163 169 170 171 171 170 167 162 160 162 162 158 155 153 153 155 156
145 154 148 161 191 189 192 196 189 180 166 163 170 176 181 186 189 191 189 185 181 171 166 172 176 178 180 179 186 189 184 183 188 191 193 193 190 189 190 190 185 181 183 182 180 176 164 159 159 155 161 156 152 163 168 163 153 144 136 102 121 171 150 128 120 118 138 148 161 170 172 177 174 169 163 155 154 160 162 161 158 155 156 156 152
158 166 158 160 182 191 196 195 187 183 174 167 171 174 171 177 189 189 185 179 170 164 164 170 175 177 180 180 182 185 185 186 187 189 192 192 188 189 192 188 185 184 182 181 179 174 164 160 156 159 181 172 157 164 175 175 163 155 153 137 132 198 214 152 132 112 132 145 156 163 168 180 177 172 165 155 152 157 157 154 153 155 156 154 150
166 176 170 165 175 185 192 192 189 188 180 170 171 173 169 173 181 182 181 172 164 171 174 174 176 176 179 181 181 182 186 186 186 187 189 191 187 189 193 187 183 187 183 179 178 170 166 171 164 164 185 184 164 160 163 173 174 175 175 166 184 196 163 154 144 113 131 136 138 149 161 171 170 169 161 152 151 152 148 146 147 150 152 154 155
174 181 178 175 175 178 187 190 190 191 184 175 175 173 170 172 175 178 182 177 172 180 183 178 178 178 178 180 181 181 186 187 185 184 184 186 185 185 191 188 185 187 188 189 181 163 166 179 171 167 181 182 176 168 161 168 176 184 188 193 227 175 161 157 155 142 136 130 125 134 147 154 155 154 149 148 149 144 140 139 138 140 146 152 153
178 183 183 185 181 180 187 190 190 192 186 181 181 177 172 171 170 172 179 181 178 179 181 180 179 181 180 181 182 180 183 185 179 178 181 183 180 177 184 190 188 185 188 200 194 169 175 183 167 167 178 178 181 175 163 166 168 167 179 181 162 161 162 161 154 142 128 117 118 126 137 145 150 150 149 148 143 137 132 129 130 133 140 148 150
178 183 186 192 193 192 193 190 188 189 187 186 186 183 176 171 168 168 173 181 180 175 175 177 178 180 179 179 181 179 181 183 178 179 184 184 181 176 177 184 184 181 184 191 187 173 179 185 173 172 175 175 183 180 166 168 168 161 160 150 143 149 156 158 151 140 131 136 130 122 138 141 141 146 153 147 140 136 129 125 133 138 137 141 142
181 186 191 198 201 207 213 199 181 183 189 189 187 187 183 172 168 168 170 175 175 168 166 171 176 179 176 175 179 180 182 184 182 184 185 185 184 177 172 178 179 179 182 180 176 176 180 185 181 179 176 174 180 179 172 173 169 161 157 152 149 149 148 149 149 144 139 133 129 141 150 145 137 147 154 147 143 139 130 134 147 146 138 136 133
183 184 186 190 193 209 259 269 218 192 191 190 186 187 187 178 174 172 170 170 167 163 163 167 174 179 179 177 178 181 183 186 185 185 185 185 182 173 163 170 182 181 183 181 177 179 183 184 182 179 177 175 174 175 175 174 168 163 164 166 166 164 161 159 157 154 150 138 134 144 154 145 138 148 153 146 144 138 134 148 157 149 142 138 132